Weather History for KGRF - July, 2013

Change the Weather History Date:

Monday, July 8, 2013

  Actual Average Record
Temperature  
Mean Temperature 64 °F -  
Max Temperature 75 °F 73 °F 94 °F (2010)
Min Temperature 52 °F 51 °F 44 °F (1999)
Degree Days  
Heating Degree Days 2    
Growing Degree Days 14 (Base 50)    
Moisture  
Dew Point 54 °F    
Average Humidity 72    
Maximum Humidity 91    
Minimum Humidity 52    
Precipitation  
Precipitation 0.00 in - - ()
Sea Level Pressure  
Sea Level Pressure 30.07 in    
Wind  
Wind Speed 4 mph (WSW)    
Max Wind Speed 8 mph    
Max Gust Speed -    
Visibility 10 miles    
Events      
Averages and records for this station are not official NWS values.
T = Trace of Precipitation, MM = Missing Value Source: NWS Daily Summary

Daily Weather History Graph

Daily Weather History Graph

Search for Another Location

Airport or City:

Trip Planner

Search our weather history database for the weather conditions in past years. The results will help you decide how hot, cold, wet, or windy it might be!

Date:

Astronomy

Jul. 08, 2013 Rise Set
Actual Time 5:24 AM PDT 9:06 PM PDT
Civil Twilight 4:45 AM PDT 9:45 PM PDT
Nautical Twilight 3:52 AM PDT 10:37 PM PDT
Astronomical Twilight 2:38 AM PDT 11:50 PM PDT
Moon 6:04 AM PDT (7/8) 9:03 PM PDT (7/8)
Length of Visible Light 17h 00m
Length of Day
15h 42m
New Moon, 0% of the Moon is Illuminated
Jul 8
New Moon
Jul 15
First Quarter
Jul 22
Full
Jul 29
Last Quarter
Aug 6
New

Hourly Weather History & Observations

Time (PDT) Temp. Dew Point Humidity Pressure Visibility Wind Dir Wind Speed Gust Speed Precip Events Conditions
12:58 AM 55.4 °F 51.4 °F 87% 29.99 in 10.0 mi SSW 4.6 mph - N/A   Clear
1:58 AM 54.5 °F 50.7 °F 87% 30.00 in 10.0 mi South 1.2 mph - N/A   Clear
2:58 AM 52.9 °F 50.2 °F 91% 30.02 in 10.0 mi South 3.5 mph - N/A   Clear
3:58 AM 53.1 °F 50.0 °F 89% 30.03 in 10.0 mi South 4.6 mph - N/A   Clear
4:38 AM 53.6 °F 50.0 °F 88% 30.02 in 10.0 mi SSW 4.6 mph - N/A   Mostly Cloudy
4:58 AM 54.5 °F 50.4 °F 86% 30.04 in 10.0 mi SW 5.8 mph - N/A   Overcast
5:58 AM 55.2 °F 50.9 °F 85% 30.06 in 10.0 mi SW 3.5 mph - N/A   Overcast
6:58 AM 55.8 °F 50.9 °F 84% 30.07 in 10.0 mi South 4.6 mph - N/A   Overcast
7:58 AM 56.5 °F 51.3 °F 83% 30.09 in 10.0 mi South 5.8 mph - N/A   Overcast
8:58 AM 58.3 °F 51.4 °F 78% 30.10 in 10.0 mi SW 4.6 mph - N/A   Overcast
9:58 AM 59.7 °F 51.8 °F 75% 30.11 in 10.0 mi SSW 4.6 mph - N/A   Overcast
10:08 AM 59.0 °F 51.8 °F 77% 30.10 in 10.0 mi Variable 3.5 mph - N/A   Overcast
10:58 AM 62.6 °F 52.9 °F 70% 30.11 in 10.0 mi Variable 4.6 mph - N/A   Overcast
11:58 AM 65.5 °F 53.8 °F 66% 30.11 in 10.0 mi West 8.1 mph - N/A   Scattered Clouds
12:58 PM 67.1 °F 54.7 °F 64% 30.11 in 10.0 mi NW 3.5 mph - N/A   Clear
1:58 PM 69.4 °F 55.6 °F 61% 30.11 in 10.0 mi West 8.1 mph - N/A   Clear
2:58 PM 71.2 °F 56.1 °F 59% 30.10 in 10.0 mi Variable 3.5 mph - N/A   Clear
3:58 PM 74.1 °F 56.8 °F 55% 30.09 in 10.0 mi WNW 6.9 mph - N/A   Clear
4:58 PM 74.5 °F 56.3 °F 53% 30.08 in 10.0 mi Variable 4.6 mph - N/A   Clear
5:58 PM 74.8 °F 57.0 °F 54% 30.08 in 10.0 mi WNW 8.1 mph - N/A   Clear
6:58 PM 75.6 °F 56.8 °F 52% 30.08 in 10.0 mi NW 5.8 mph - N/A   Clear
7:58 PM 74.5 °F 57.2 °F 55% 30.08 in 10.0 mi West 5.8 mph - N/A   Clear
8:58 PM 71.8 °F 57.4 °F 60% 30.08 in 10.0 mi WNW 4.6 mph - N/A   Clear
9:58 PM 70.0 °F 58.3 °F 66% 30.09 in 10.0 mi Variable 2.3 mph - N/A   Clear
10:58 PM 67.6 °F 58.3 °F 72% 30.09 in 10.0 mi West 3.5 mph - N/A   Clear
11:58 PM 65.3 °F 58.6 °F 79% 30.10 in 10.0 mi West 3.5 mph - N/A   Clear